When you browse on this site, cookies collect data to enhance your experience and personalize the content and advertising you see.
Visit our Privacy Policy to learn more. By continuing to use the site, you agree to this use of cookies and data.
  • In Italy
  • List of Countries
  • For 7 days
  • Water Temperature
  • Satellite Maps
  • Weather Map
  • Weather Widgets
  • user-avatar
    Login

    Hourly Weather Yeghegnadzor

    Today, 18 January, Friday

    Time Temperature Precipitation Wind Pressure Humidity
    00:00 -3°C° 0.2 mm 2 mps 647 mmHg 81%
    01:00 -3°C° 0.2 mm 2 mps 647 mmHg 81%
    02:00 -4°C° 0.2 mm 2 mps 648 mmHg 81%
    03:00 -4°C° 0.2 mm 2 mps 648 mmHg 81%
    04:00 -4°C° 0.1 mm 2 mps 648 mmHg 80%
    05:00 -5°C° 0.1 mm 2 mps 649 mmHg 80%
    06:00 -5°C° 0.1 mm 2 mps 649 mmHg 79%
    07:00 -3°C° 0.1 mm 1 mps 650 mmHg 78%
    08:00 -2°C° 0.1 mm 1 mps 650 mmHg 76%
    09:00 -2°C° 0.1 mm 1 mps 651 mmHg 75%
    10:00 -1°C° 0 mm 1 mps 651 mmHg 72%
    11:00 -2°C° 0 mm 2 mps 651 mmHg 70%
    12:00 -2°C° 0 mm 2 mps 651 mmHg 67%
    13:00 -1°C° 0 mm 2 mps 651 mmHg 67%
    14:00 -1°C° 0 mm 2 mps 651 mmHg 67%
    15:00 -1°C° 0 mm 2 mps 651 mmHg 67%
    16:00 -1°C° 0 mm 1 mps 651 mmHg 69%
    17:00 -3°C° 0 mm 1 mps 651 mmHg 71%
    18:00 -4°C° 0 mm 1 mps 651 mmHg 73%
    19:00 -6°C° 0 mm 1 mps 652 mmHg 72%
    20:00 -6°C° 0 mm 1 mps 652 mmHg 71%
    21:00 -6°C° 0 mm 1 mps 652 mmHg 70%
    22:00 -6°C° 0 mm 1 mps 652 mmHg 69%
    23:00 -7°C° 0 mm 1 mps 652 mmHg 68%

    Tomorrow, 19 January, Saturday

    Time Temperature Precipitation Wind Pressure Humidity
    00:00 -7°C° 0 mm 1 mps 652 mmHg 68%
    01:00 -7°C° 0 mm 1 mps 652 mmHg 67%
    02:00 -7°C° 0 mm 1 mps 652 mmHg 67%
    03:00 -7°C° 0 mm 1 mps 652 mmHg 66%
    04:00 -7°C° 0 mm 1 mps 652 mmHg 66%
    05:00 -7°C° 0 mm 1 mps 652 mmHg 66%
    06:00 -7°C° 0 mm 1 mps 652 mmHg 65%
    07:00 -6°C° 0 mm 1 mps 652 mmHg 64%
    08:00 -4°C° 0 mm 1 mps 653 mmHg 63%
    09:00 -3°C° 0 mm 1 mps 653 mmHg 62%
    10:00 -2°C° 0 mm 1 mps 653 mmHg 61%
    11:00 -1°C° 0 mm 1 mps 653 mmHg 60%
    12:00 0°C° 0 mm 1 mps 652 mmHg 59%
    13:00 0°C° 0 mm 1 mps 652 mmHg 60%
    14:00 0°C° 0 mm 1 mps 652 mmHg 62%
    15:00 0°C° 0 mm 1 mps 651 mmHg 63%
    16:00 -1°C° 0 mm 1 mps 651 mmHg 64%
    17:00 -3°C° 0 mm 1 mps 651 mmHg 64%
    18:00 -4°C° 0 mm 1 mps 651 mmHg 65%
    19:00 -6°C° 0 mm 1 mps 651 mmHg 62%
    20:00 -6°C° 0 mm 1 mps 651 mmHg 58%
    21:00 -6°C° 0 mm 1 mps 652 mmHg 55%
    22:00 -6°C° 0 mm 1 mps 652 mmHg 53%
    23:00 -7°C° 0 mm 1 mps 652 mmHg 52%

    Day after tomorrow, 20 January, Sunday

    Time Temperature Precipitation Wind Pressure Humidity
    00:00 -8°C° 0 mm 2 mps 652 mmHg 50%
    01:00 -8°C° 0 mm 2 mps 652 mmHg 50%
    02:00 -8°C° 0 mm 2 mps 652 mmHg 49%
    03:00 -8°C° 0 mm 2 mps 652 mmHg 48%
    04:00 -8°C° 0 mm 2 mps 652 mmHg 48%
    05:00 -8°C° 0 mm 2 mps 652 mmHg 48%
    06:00 -8°C° 0 mm 2 mps 652 mmHg 47%
    07:00 -6°C° 0 mm 1 mps 652 mmHg 48%
    08:00 -3°C° 0 mm 1 mps 653 mmHg 49%
    09:00 -2°C° 0 mm 1 mps 654 mmHg 50%
    10:00 -1°C° 0 mm 1 mps 654 mmHg 50%
    11:00 0°C° 0 mm 1 mps 653 mmHg 50%
    12:00 +1°C° 0 mm 1 mps 653 mmHg 50%
    13:00 +1°C° 0 mm 1 mps 653 mmHg 53%
    14:00 +1°C° 0 mm 1 mps 653 mmHg 55%
    15:00 +1°C° 0 mm 1 mps 652 mmHg 58%
    16:00 0°C° 0 mm 1 mps 652 mmHg 60%
    17:00 -2°C° 0 mm 1 mps 652 mmHg 61%
    18:00 -4°C° 0 mm 1 mps 652 mmHg 63%
    19:00 -4°C° 0 mm 1 mps 652 mmHg 61%
    20:00 -6°C° 0 mm 2 mps 652 mmHg 58%
    21:00 -7°C° 0 mm 2 mps 653 mmHg 56%
    22:00 -7°C° 0 mm 2 mps 653 mmHg 54%
    23:00 -7°C° 0 mm 2 mps 653 mmHg 51%

    21 January, Monday

    Time Temperature Precipitation Wind Pressure Humidity
    00:00 -7°C° 0 mm 2 mps 653 mmHg 49%
    01:00 -7°C° 0 mm 2 mps 653 mmHg 47%
    02:00 -8°C° 0 mm 2 mps 653 mmHg 45%
    03:00 -8°C° 0 mm 2 mps 652 mmHg 43%
    04:00 -8°C° 0 mm 2 mps 652 mmHg 42%
    05:00 -8°C° 0 mm 2 mps 652 mmHg 41%
    06:00 -8°C° 0 mm 2 mps 652 mmHg 41%
    07:00 -7°C° 0 mm 2 mps 653 mmHg 43%
    08:00 -6°C° 0 mm 2 mps 653 mmHg 45%
    09:00 -3°C° 0 mm 1 mps 653 mmHg 48%
    10:00 -2°C° 0 mm 1 mps 653 mmHg 49%
    11:00 -1°C° 0 mm 1 mps 653 mmHg 50%
    12:00 +1°C° 0 mm 1 mps 653 mmHg 50%
    13:00 +1°C° 0 mm 1 mps 652 mmHg 52%
    14:00 +1°C° 0 mm 1 mps 652 mmHg 54%
    15:00 +1°C° 0 mm 1 mps 651 mmHg 56%
    16:00 -1°C° 0 mm 1 mps 651 mmHg 57%
    17:00 -3°C° 0 mm 1 mps 651 mmHg 58%
    18:00 -6°C° 0 mm 1 mps 650 mmHg 59%
    19:00 -6°C° 0 mm 1 mps 650 mmHg 57%
    20:00 -6°C° 0 mm 1 mps 650 mmHg 54%
    21:00 -8°C° 0 mm 2 mps 651 mmHg 52%
    22:00 -8°C° 0 mm 2 mps 650 mmHg 52%
    23:00 -8°C° 0 mm 2 mps 650 mmHg 52%

    22 January, Tuesday

    Time Temperature Precipitation Wind Pressure Humidity
    00:00 -8°C° 0 mm 2 mps 650 mmHg 52%
    01:00 -8°C° 0 mm 2 mps 650 mmHg 53%
    02:00 -8°C° 0 mm 2 mps 650 mmHg 54%
    03:00 -8°C° 0 mm 2 mps 650 mmHg 54%
    04:00 -8°C° 0 mm 1 mps 650 mmHg 55%
    05:00 -8°C° 0 mm 1 mps 650 mmHg 55%
    06:00 -8°C° 0 mm 1 mps 650 mmHg 55%
    07:00 -7°C° 0 mm 1 mps 650 mmHg 55%
    08:00 -4°C° 0 mm 1 mps 651 mmHg 55%
    09:00 -3°C° 0 mm 1 mps 651 mmHg 55%
    10:00 -2°C° 0 mm 1 mps 651 mmHg 53%
    11:00 -1°C° 0 mm 1 mps 651 mmHg 52%
    12:00 0°C° 0 mm 1 mps 650 mmHg 51%
    13:00 +1°C° 0 mm 1 mps 650 mmHg 52%
    14:00 +1°C° 0 mm 1 mps 650 mmHg 54%
    15:00 +1°C° 0 mm 1 mps 650 mmHg 55%
    16:00 -1°C° 0 mm 1 mps 650 mmHg 56%
    17:00 -2°C° 0 mm 1 mps 650 mmHg 57%
    18:00 -4°C° 0 mm 1 mps 650 mmHg 58%
    19:00 -4°C° 0 mm 1 mps 650 mmHg 57%
    20:00 -6°C° 0 mm 2 mps 650 mmHg 55%
    21:00 -7°C° 0 mm 2 mps 650 mmHg 54%
    22:00 -7°C° 0 mm 2 mps 650 mmHg 54%
    23:00 -7°C° 0 mm 2 mps 650 mmHg 54%

    23 January, Wednesday

    Time Temperature Precipitation Wind Pressure Humidity
    00:00 -7°C° 0 mm 2 mps 650 mmHg 53%
    01:00 -7°C° 0 mm 2 mps 650 mmHg 54%
    02:00 -7°C° 0 mm 2 mps 650 mmHg 55%
    03:00 -8°C° 0 mm 2 mps 650 mmHg 55%
    04:00 -8°C° 0 mm 2 mps 650 mmHg 57%
    05:00 -8°C° 0 mm 2 mps 650 mmHg 58%
    06:00 -8°C° 0 mm 2 mps 650 mmHg 60%
    07:00 -7°C° 0 mm 2 mps 651 mmHg 61%
    08:00 -6°C° 0 mm 2 mps 651 mmHg 61%
    09:00 -3°C° 0 mm 1 mps 652 mmHg 62%
    10:00 -2°C° 0 mm 1 mps 652 mmHg 61%
    11:00 0°C° 0 mm 1 mps 652 mmHg 59%
    12:00 +1°C° 0 mm 1 mps 652 mmHg 58%
    13:00 +1°C° 0 mm 1 mps 652 mmHg 59%
    14:00 +1°C° 0 mm 1 mps 651 mmHg 59%
    15:00 +1°C° 0 mm 1 mps 651 mmHg 60%
    16:00 -1°C° 0 mm 1 mps 651 mmHg 62%
    17:00 -2°C° 0 mm 1 mps 651 mmHg 64%
    18:00 -4°C° 0 mm 1 mps 651 mmHg 66%
    19:00 -6°C° 0 mm 2 mps 651 mmHg 65%
    20:00 -6°C° 0 mm 2 mps 651 mmHg 65%
    21:00 -6°C° 0 mm 2 mps 651 mmHg 64%
    22:00 -7°C° 0 mm 2 mps 651 mmHg 65%
    23:00 -7°C° 0 mm 2 mps 651 mmHg 67%
    Show more